SCP
0 0 0 0 0 0 0 0 0 0 0 0 0 0 0 0 0 0 0 0 0 0 0 0 0 0 0 0 0 0 0 0 0 0 0 0 0 0 0 0 0 0 0
0 0 0 0 0 0 0 0 0 0 0 0 0 0 0 0 0 0 0 0 0 0 0 0 0 0 0 0 0 0 0 0 0 0 0 0 0 0 0 0 0 0 0
0 0 0 0 0 0 0 0 0 0 0 0 0 0 0 0 0 0 0 0 0 0 0 0 0 0 0 0 0 0 0 0 0 0 0 0 0 0 0 0 0 0 0
0 0 0 0 0 0 0 0 0 0 0 0 0 0 0 0 0 0 0 0 0 0 0 0 0 0 0 0 0 0 0 0 0 0 0 0 0 0 0 0 0 0 0
0 0 0 0 0 0 0 0 1 1 1 0 0 0 0 0 0 0 0 0 0 0 0 0 0 0 0 0 0 0 0 0 0 0 0 0 0 0 0 0 0 0 0
0 0 0 0 0 0 0 1 1 1 1 1 0 0 0 0 0 0 0 0 0 0 0 0 0 0 0 0 0 0 0 0 0 0 0 0 0 0 0 0 0 0 0
0 0 0 0 0 0 0 0 1 1 1 1 0 0 0 0 0 0 0 0 0 0 0 0 0 0 0 0 0 0 0 0 0 0 0 0 0 0 0 0 0 0 0
0 0 0 0 0 0 0 0 0 0 0 0 0 0 0 0 0 0 0 0 0 0 0 0 0 0 0 0 0 0 0 0 0 0 0 0 0 0 0 0 0 0 0
0 0 0 0 0 0 0 0 0 0 0 0 0 0 0 0 0 0 0 0 0 0 0 0 0 0 0 0 0 0 0 0 0 0 0 0 0 0 0 0 0 0 0
0 0 0 0 0 0 0 0 0 0 0 0 0 0 0 0 0 0 0 0 0 0 0 0 0 0 0 0 0 0 0 0 0 0 0 0 0 0 0 0 0 0 0
0 0 0 0 0 0 0 0 0 0 0 0 0 0 0 0 0 0 0 0 0 0 0 0 0 0 0 0 0 0 0 0 0 0 0 0 0 0 0 0 0 0 0
0 0 0 0 0 0 0 0 0 0 0 0 0 0 0 0 0 0 0 0 0 0 0 0 0 0 0 0 0 0 0 0 0 0 0 0 0 0 0 0 0 0 0
0 0 0 0 0 0 0 0 0 0 0 0 0 0 0 0 0 0 0 0 0 0 0 0 0 0 0 0 0 0 0 0 0 0 0 0 0 0 0 0 0 0 0
0 0 0 0 0 0 0 0 0 0 0 0 0 0 0 0 0 0 0 0 0 0 0 0 0 0 0 0 0 0 0 0 0 0 0 0 0 0 0 0 0 0 0
0 0 0 0 0 0 0 0 0 0 0 0 0 0 0 0 0 0 0 0 0 0 0 0 0 0 0 0 0 0 0 0 0 0 0 0 0 0 0 0 0 0 0
0 0 0 0 0 0 0 0 0 0 0 0 0 0 0 0 0 0 0 0 0 0 0 0 0 0 0 0 0 0 0 0 0 0 0 0 0 0 0 0 0 0 0
0 0 0 0 0 0 0 0 0 0 0 0 0 0 0 0 0 0 0 0 0 0 0 0 0 0 0 0 0 0 0 0 0 0 0 0 0 0 0 0 0 0 0
0 0 0 0 0 0 0 0 0 0 0 0 0 0 0 0 0 0 0 0 0 0 0 0 0 0 0 0 0 0 0 0 0 0 0 0 0 0 0 0 0 0 0
0 0 0 0 0 0 0 0 0 0 0 0 0 0 0 0 0 0 0 0 0 0 0 0 0 0 0 0 0 0 0 0 0 0 0 0 0 0 0 0 0 0 0
0 0 0 0 0 0 0 0 0 0 0 0 0 0 0 0 0 0 0 0 0 0 0 0 0 0 0 0 0 0 0 0 0 0 0 0 0 0 0 0 0 0 0
0 0 0 0 0 0 0 0 0 0 0 0 0 0 0 0 0 0 0 0 0 0 0 0 0 0 0 0 0 0 0 0 0 0 0 0 0 0 0 0 0 0 0
0 0 0 0 0 0 0 0 0 0 0 0 0 0 0 0 0 0 0 0 0 0 0 0 0 0 0 0 0 0 0 0 0 0 0 0 0 0 0 0 0 0 0
0 0 0 0 0 0 0 0 0 0 0 0 0 0 0 0 0 0 0 0 0 0 0 0 0 0 0 0 0 0 0 0 0 0 0 0 0 0 0 0 0 0 0
0 0 0 0 0 0 0 0 0 0 0 0 0 0 0 0 0 0 0 0 0 0 0 0 0 0 0 0 0 0 0 0 0 0 0 0 0 0 0 0 0 0 0
0 0 0 0 0 0 0 0 0 0 0 0 0 0 0 0 0 0 0 0 0 0 0 0 0 0 0 0 0 0 0 0 0 0 0 0 0 0 0 0 0 0 0
0 0 0 0 0 0 0 0 0 0 0 0 0 0 0 0 0 0 0 0 0 0 0 0 0 0 0 0 0 0 0 0 0 0 0 0 0 0 0 0 0 0 0
Wind_Speed
5 5 4 5 6 5 6 6 5 6 7 7 7 8 9 9 9 8 6 13 14 13 13 12 10 11 11 10 10 10 11 12 11 11 11 13 14 15 17 19 19 18 17
6 5 6 5 6 6 6 5 6 5 6 6 8 8 9 9 9 9 8 9 14 14 13 12 11 11 11 11 11 10 11 11 10 10 11 12 12 13 15 19 20 19 18
7 7 6 6 6 6 6 5 6 5 5 6 8 9 8 9 9 9 9 7 8 11 13 12 12 11 12 12 11 10 10 10 10 10 11 11 12 12 14 18 21 20 19
8 6 6 7 6 4 4 5 5 4 5 6 7 7 7 7 9 9 8 8 7 7 10 13 13 12 13 13 12 11 10 11 11 11 11 11 12 13 13 17 21 21 20
7 6 6 6 5 4 4 5 5 5 5 6 7 7 7 7 8 9 9 9 8 8 7 9 12 12 13 13 12 12 12 12 12 12 12 12 12 12 13 15 20 23 22
4 4 4 5 4 3 4 4 6 5 5 6 7 8 7 8 7 8 9 8 8 9 9 8 7 8 12 12 12 12 13 13 13 13 13 13 12 11 12 13 18 23 24
1 1 1 2 2 3 5 5 5 6 5 4 4 6 6 8 8 8 7 7 8 8 8 8 6 6 5 10 12 13 14 14 14 14 14 13 13 11 12 12 16 23 25
1 1 1 2 2 3 5 5 5 5 4 4 4 4 4 4 5 6 5 6 7 5 6 7 7 7 6 5 7 12 12 14 15 15 15 14 13 12 11 12 14 23 26
2 2 2 2 3 3 4 6 6 8 7 4 5 5 4 4 3 3 3 3 3 3 3 4 6 6 7 6 6 9 12 13 14 15 14 14 13 12 12 13 14 22 26
2 2 3 3 3 3 4 6 6 6 8 7 4 6 7 4 4 4 3 2 2 2 2 3 4 4 5 5 6 9 12 12 13 14 13 12 12 12 12 13 14 22 27
1 2 3 3 3 3 4 5 6 6 5 7 6 4 6 6 6 5 5 3 2 2 2 3 3 4 4 5 5 8 10 11 10 10 10 11 13 13 13 14 15 21 28
1 3 3 3 3 3 4 4 4 5 4 5 5 4 4 4 4 5 6 4 3 3 3 3 3 3 4 4 6 8 9 8 7 7 8 11 13 14 15 15 15 19 27
1 2 3 3 3 3 4 4 4 5 4 4 3 2 2 3 2 2 3 2 3 2 3 3 3 3 3 3 3 5 5 5 5 5 7 10 12 13 13 14 15 18 25
1 1 2 3 3 4 4 4 3 4 4 4 4 3 2 2 2 1 1 1 2 2 2 4 2 3 3 2 2 3 2 3 3 4 6 8 9 10 11 12 13 17 24
1 1 2 3 3 4 4 4 3 4 4 3 3 3 2 2 2 2 2 1 2 2 2 3 2 3 2 2 2 2 2 2 2 3 5 6 5 5 7 10 13 17 22
2 2 3 4 4 4 4 3 3 3 3 3 2 3 3 2 2 2 2 2 2 2 3 3 3 4 4 4 3 3 2 2 1 1 2 2 1 3 7 11 15 19 22
3 3 4 4 5 5 5 4 4 4 3 4 4 4 5 5 3 3 3 2 2 2 5 4 3 4 4 4 1 2 1 1 0 0 1 2 4 7 11 14 17 20 21
4 4 5 5 6 6 5 5 5 5 5 6 6 6 6 5 6 4 4 4 3 3 3 5 3 3 3 3 1 2 2 1 1 1 2 4 7 10 12 15 17 18 19
5 6 6 6 6 5 5 5 6 7 7 7 6 6 6 5 6 5 5 5 4 4 3 3 4 3 2 2 1 1 2 1 1 2 3 4 7 9 12 14 15 16 17
6 5 5 5 5 5 5 6 6 6 6 6 6 6 6 5 5 5 5 6 5 5 4 3 3 3 3 3 2 0 1 1 1 2 2 3 5 8 10 12 13 14 15
6 5 5 5 5 5 5 5 6 6 6 7 7 7 8 9 9 6 4 5 5 5 5 4 4 4 4 4 4 2 1 1 1 1 2 2 3 4 5 8 10 12 13
5 5 5 5 6 5 8 9 7 7 7 8 8 7 7 10 11 11 10 8 7 5 5 5 4 5 6 5 5 3 1 1 2 1 2 3 3 4 5 6 9 12 12
4 5 5 5 6 6 9 11 11 8 8 7 7 7 7 9 10 9 9 9 9 9 7 3 4 5 5 5 6 5 3 1 0 1 1 2 3 3 4 5 10 12 13
4 4 4 4 5 6 8 10 10 7 7 7 7 6 7 8 10 8 8 9 9 10 9 5 4 4 5 6 5 4 4 2 2 3 2 1 1 1 1 3 8 12 13
4 4 4 5 6 6 6 5 6 5 5 6 6 7 8 7 11 11 9 9 9 8 8 10 9 9 10 11 8 5 5 4 3 3 3 2 1 1 0 1 2 6 9
5 5 6 5 6 6 7 5 4 3 4 3 4 5 9 10 10 10 7 7 8 6 7 8 9 11 11 11 12 8 5 4 3 3 3 2 2 2 1 1 1 2 3
Wind_Direction
236 239 245 249 255 258 258 257 252 254 258 261 260 261 265 265 264 260 261 268 269 268 270 266 258 250 248 246 242 240 242 246 245 238 236 238 238 233 223 212 206 204 202
232 236 245 249 252 250 248 246 247 253 262 265 267 263 262 265 264 261 258 263 264 262 261 258 254 249 250 248 244 240 240 244 244 240 237 237 238 236 226 215 207 204 201
229 233 242 250 252 247 244 246 253 255 263 266 268 266 264 262 262 260 257 253 257 258 255 251 249 249 250 250 247 241 238 238 240 240 241 240 239 237 229 217 207 202 199
229 230 237 248 248 240 235 238 243 250 256 260 266 270 267 264 264 261 258 252 248 249 248 244 244 245 246 248 247 243 239 238 241 242 244 244 243 240 233 220 207 199 196
222 219 232 244 244 238 236 242 242 235 251 257 262 269 269 266 264 264 260 254 247 241 239 239 239 242 246 247 245 242 240 240 241 244 246 246 245 243 235 224 209 197 193
215 209 227 243 242 242 248 245 253 250 249 258 269 272 271 269 264 259 259 257 250 243 235 232 233 239 241 241 239 240 243 243 241 244 246 246 244 242 236 227 212 196 191
188 195 240 266 260 252 256 256 259 263 258 245 260 272 267 261 257 255 250 250 251 245 233 228 226 226 233 237 238 242 246 247 244 243 245 246 245 241 237 227 215 197 190
31 4 315 294 283 274 273 264 256 262 258 225 234 265 286 292 265 252 246 244 250 243 238 231 223 222 226 229 232 236 244 251 252 247 245 245 243 241 238 230 217 197 189
15 355 325 313 299 283 279 276 264 261 268 252 222 230 242 251 294 292 267 256 254 248 248 242 234 230 227 226 232 236 240 245 251 255 252 247 245 240 236 230 220 198 188
0 1 351 341 325 310 294 286 276 264 266 268 247 227 231 227 233 285 298 283 280 263 276 274 263 252 237 230 230 234 238 239 243 251 257 257 255 248 237 229 224 201 188
19 18 6 1 353 337 319 307 300 284 270 268 262 248 241 237 228 234 268 287 304 284 278 282 280 272 259 244 239 240 239 239 238 244 256 265 266 258 244 233 227 205 190
41 23 13 12 2 350 338 329 320 314 300 284 274 255 242 235 221 222 238 254 271 282 287 283 277 276 272 262 256 250 244 239 237 248 263 269 268 261 248 235 226 205 190
61 12 6 1 358 351 346 342 338 341 340 332 319 295 274 261 248 227 231 245 254 274 287 277 261 268 273 267 267 259 244 236 246 264 275 277 272 260 242 226 217 200 186
119 1 1 4 1 358 356 353 343 343 346 356 8 12 7 1 351 328 281 250 265 271 263 269 285 272 277 270 262 256 250 247 268 286 291 288 277 257 230 210 202 182 174
128 39 29 18 6 0 356 351 341 341 346 358 3 11 16 10 9 357 340 309 278 281 281 273 283 296 289 267 238 231 236 260 275 297 304 301 287 243 202 184 170 160 159
74 49 32 21 8 360 354 349 334 335 354 355 354 10 14 9 2 352 330 300 270 266 277 276 263 276 282 270 229 215 217 218 256 313 326 338 20 143 148 147 145 146 149
52 47 37 28 18 9 360 356 349 349 5 10 20 27 23 20 18 9 2 348 320 280 272 281 263 275 270 263 218 179 170 177 174 96 90 97 111 122 128 132 135 139 145
55 54 51 43 30 19 11 9 11 25 35 39 34 35 28 29 31 16 12 7 345 313 281 290 298 306 296 309 267 170 152 162 139 136 130 123 122 123 125 129 133 138 143
67 59 55 46 32 22 23 33 48 53 52 45 35 33 21 27 29 17 14 10 352 342 324 315 321 322 321 342 346 112 139 122 144 149 140 128 128 128 130 134 138 143 148
77 63 52 42 32 32 41 52 59 56 49 41 32 27 22 24 18 7 9 8 2 4 2 356 345 339 327 326 333 342 164 144 148 158 136 124 135 136 141 144 149 152 158
81 67 57 46 38 41 46 62 60 54 44 38 31 27 29 33 31 22 14 5 9 14 13 14 9 3 359 355 349 332 235 151 143 147 149 153 148 149 159 162 165 168 172
81 69 57 53 47 45 65 73 75 63 52 44 32 20 24 26 15 15 17 24 26 22 13 15 13 9 357 348 334 327 304 174 176 165 165 170 170 178 179 184 190 190 191
93 80 66 64 61 57 78 81 78 75 61 46 36 27 26 16 14 8 7 22 30 30 27 8 15 4 342 333 334 339 345 345 29 108 150 162 177 197 195 198 198 203 207
101 89 74 72 73 64 86 92 86 77 66 50 39 31 29 19 14 9 18 25 27 27 24 26 10 343 329 325 326 317 321 347 44 33 25 99 134 198 192 203 207 211 216
102 87 77 76 77 59 65 98 91 75 64 47 33 30 28 22 7 20 31 26 25 20 22 37 38 28 18 15 9 10 10 17 24 22 14 28 33 21 357 241 211 212 217
110 99 81 69 72 60 50 80 99 87 69 43 22 20 22 17 9 21 33 31 24 1 358 17 24 22 21 20 23 23 10 14 11 15 6 16 19 13 354 339 255 212 212